Date,TemperatureHighF,TemperatureAvgF,TemperatureLowF,DewpointHighF,DewpointAvgF,DewpointLowF,HumidityHigh,HumidityAvg,HumidityLow,PressureMaxIn,PressureMinIn,WindSpeedMaxMPH,WindSpeedAvgMPH,GustSpeedMaxMPH,PrecipitationSumIn
2013-1-1,28,26,24,26,24,22,92,92,91,30.24,30.06,0,0,0,0.00
2013-1-2,31,28,26,29,26,24,92,92,92,30.42,30.07,0,0,0,0.00
2013-1-3,39,32,23,37,30,21,93,91,85,30.53,30.32,0,0,0,0.00
2013-1-4,48,44,38,40,37,34,86,79,66,30.32,30.06,0,0,0,0.00
2013-1-5,51,43,34,42,36,25,91,75,57,30.14,29.92,0,0,0,0.00
2013-1-6,37,33,30,30,27,24,90,77,65,30.18,29.96,0,0,0,0.00
2013-1-7,34,30,22,30,24,16,90,79,65,30.40,30.00,0,0,0,0.00
2013-1-8,31,25,16,23,18,12,87,78,65,30.41,30.23,0,0,0,0.00
2013-1-9,29,27,24,26,24,21,90,88,86,30.24,30.12,0,0,0,0.00
2013-1-10,31,27,24,29,25,21,92,91,90,30.12,29.78,0,0,0,0.00
2013-1-11,37,32,26,35,28,20,93,87,76,29.99,29.75,0,0,0,0.00
2013-1-12,32,27,20,25,22,16,89,80,69,30.11,29.99,0,0,0,0.00
2013-1-13,31,28,25,26,24,22,89,86,81,30.13,30.07,0,0,0,0.00
2013-1-14,34,31,26,32,27,22,90,86,80,30.07,29.88,0,0,0,0.00
2013-1-15,37,35,33,35,32,30,92,91,90,29.92,29.71,0,0,0,0.00
2013-1-16,38,35,30,36,33,28,93,92,92,29.70,29.54,0,0,0,0.00
2013-1-17,35,34,33,32,31,30,93,89,84,29.68,29.52,0,0,0,0.00
2013-1-18,34,33,31,32,30,29,91,89,85,29.65,29.49,0,0,0,0.00
2013-1-19,31,28,25,28,24,21,91,88,82,29.63,29.48,0,0,0,0.00
2013-1-20,35,32,29,32,30,25,92,91,87,29.62,29.50,0,0,0,0.00
2013-1-21,41,36,33,39,35,31,93,93,92,29.50,29.38,0,0,0,0.00
2013-1-22,40,33,28,38,31,26,93,91,87,29.65,29.40,0,0,0,0.00
2013-1-23,34,30,27,30,28,24,91,90,87,29.84,29.65,0,0,0,0.00
2013-1-24,33,31,29,31,28,25,92,90,85,29.83,29.69,0,0,0,0.00
2013-1-25,33,30,26,25,23,20,85,75,69,29.95,29.72,0,0,0,0.00
2013-1-26,33,29,26,23,21,20,79,74,65,30.04,29.93,0,0,0,0.00
2013-1-27,31,26,18,26,22,14,88,82,73,30.05,29.90,0,0,0,0.00
2013-1-28,33,30,28,29,27,25,90,88,86,30.14,29.89,0,0,0,0.00
2013-1-29,38,30,19,35,27,17,92,89,85,30.18,30.01,0,0,0,0.00
2013-1-30,43,38,34,41,35,32,92,90,88,30.03,29.83,0,0,0,0.00
2013-1-31,50,44,39,41,35,31,90,72,52,30.03,29.81,0,0,0,0.00
2013-2-1,50,43,34,38,34,26,77,68,53,29.89,29.52,0,0,0,0.00
2013-2-2,46,42,38,43,38,33,91,86,65,29.52,29.27,0,0,0,0.00
2013-2-3,39,34,30,36,31,25,91,89,82,29.95,29.43,0,0,0,0.00
2013-2-4,37,33,26,32,28,22,87,83,78,29.98,29.91,0,0,0,0.00
2013-2-5,44,38,32,36,33,29,89,81,72,29.96,29.62,0,0,0,0.00
2013-2-6,39,37,35,37,34,31,91,88,84,29.63,29.42,0,0,0,0.00
2013-2-7,35,33,31,32,30,27,92,88,82,29.73,29.40,0,0,0,0.00
2013-2-8,39,31,25,30,25,22,87,79,59,29.84,29.73,0,0,0,0.00
2013-2-9,32,28,24,27,25,21,89,87,79,29.93,29.85,0,0,0,0.00
2013-2-10,32,29,25,28,26,22,90,89,88,29.91,29.84,0,0,0,0.00
2013-2-11,31,25,22,27,22,19,90,89,81,29.96,29.89,0,0,0,0.00
2013-2-12,35,30,22,31,26,20,89,84,79,29.90,29.81,0,0,0,0.00
2013-2-13,41,38,34,34,32,30,88,81,74,30.02,29.87,0,0,0,0.00
2013-2-14,40,37,34,35,33,30,91,86,75,30.13,30.02,0,0,0,0.00
2013-2-15,47,39,35,40,36,33,91,87,77,30.10,30.04,0,0,0,0.00
2013-2-16,47,37,29,39,33,26,91,84,70,30.17,30.10,0,0,0,0.00
2013-2-17,38,35,31,31,30,28,89,83,77,30.21,30.16,0,0,0,0.00
2013-2-18,37,33,28,30,28,24,86,80,74,30.18,30.11,0,0,0,0.00
2013-2-19,40,33,25,33,28,22,90,84,70,30.12,29.86,0,0,0,0.00
2013-2-20,40,34,26,31,28,22,90,80,62,30.06,29.86,0,0,0,0.00
2013-2-21,35,28,20,26,23,17,89,80,69,30.08,29.93,0,0,0,0.00
2013-2-22,33,31,28,30,28,25,91,89,81,29.93,29.74,0,0,0,0.00
2013-2-23,42,37,33,39,34,30,92,91,88,29.83,29.70,0,0,0,0.00
2013-2-24,44,42,40,42,39,36,91,88,85,29.92,29.78,0,0,0,0.00
2013-2-25,50,45,42,44,41,39,91,86,80,30.12,29.92,0,0,0,0.00
2013-2-26,51,46,43,44,42,39,89,84,77,30.16,30.07,0,0,0,0.00
2013-2-27,49,43,39,41,38,33,88,83,74,30.31,30.15,0,0,0,0.00
2013-2-28,51,40,32,36,32,28,88,74,53,30.35,30.19,0,0,0,0.00
2013-3-1,40,35,30,38,32,28,92,87,81,30.19,30.02,0,0,0,0.00
2013-3-2,48,38,28,32,28,23,87,71,48,30.17,30.05,0,0,0,0.00
2013-3-3,48,36,24,33,27,20,89,72,49,30.15,30.01,0,0,0,0.00
2013-3-4,48,36,26,31,26,22,87,68,47,30.36,30.10,0,0,0,0.00
2013-3-5,52,39,25,28,25,21,83,59,33,30.38,30.15,0,0,0,0.00
2013-3-6,54,45,32,41,34,25,80,66,52,30.15,29.83,0,0,0,0.00
2013-3-7,54,49,44,46,42,38,85,78,69,29.84,29.69,0,0,0,0.00
2013-3-8,62,50,42,51,46,39,92,84,65,29.69,29.60,0,0,0,0.00
2013-3-9,57,49,45,52,46,42,93,89,78,29.61,29.57,0,0,0,0.00
2013-3-10,54,50,46,50,46,43,92,88,79,29.57,29.48,0,0,0,0.00
2013-3-11,58,48,37,48,41,34,92,79,55,29.57,29.46,0,0,0,0.00
2013-3-12,55,46,35,43,39,32,89,76,60,29.58,29.46,0,0,0,0.00
2013-3-13,52,46,42,48,43,39,92,87,78,29.49,29.43,0,0,0,0.00
2013-3-14,45,37,30,42,35,27,91,91,90,29.46,29.25,0,0,0,0.00
2013-3-15,31,28,25,27,23,19,91,82,64,29.91,29.26,0,0,0,0.00
2013-3-16,35,29,21,24,20,16,83,71,56,30.17,29.91,0,0,0,0.00
2013-3-17,35,28,20,25,20,16,86,73,55,30.20,30.02,0,0,0,0.00
2013-3-18,40,34,28,36,28,20,90,80,69,30.03,29.36,0,0,0,0.00
2013-3-19,51,42,33,40,35,28,91,77,53,29.72,29.30,0,0,0,0.00
2013-3-20,58,45,30,42,36,27,88,71,50,29.78,29.71,0,0,0,0.00
2013-3-21,48,43,35,42,39,32,89,85,73,29.76,29.71,0,0,0,0.00
2013-3-22,45,37,30,32,28,23,85,71,58,29.97,29.74,0,0,0,0.00
2013-3-23,33,30,27,25,23,19,84,75,66,30.13,29.97,0,0,0,0.00
2013-3-24,33,27,21,18,11,7,68,51,40,30.21,30.09,0,0,0,0.00
2013-3-25,33,29,27,26,18,11,89,65,49,30.09,29.71,0,0,0,0.00
2013-3-26,33,29,26,28,26,23,90,87,82,29.77,29.67,0,0,0,0.00
2013-3-27,32,30,27,29,26,24,90,87,84,29.95,29.75,0,0,0,0.00
2013-3-28,38,33,29,30,28,27,91,82,66,30.05,29.95,0,0,0,0.00
2013-3-29,36,35,33,34,31,29,91,88,83,29.99,29.74,0,0,0,0.00
2013-3-30,43,38,32,40,36,30,92,90,87,29.74,29.55,0,0,0,0.00
2013-3-31,52,43,32,50,40,28,93,90,84,29.63,29.38,0,0,0,0.00
2013-4-1,46,37,31,31,28,26,84,71,53,29.89,29.63,0,0,0,0.00
2013-4-2,43,38,32,38,31,25,89,76,64,29.88,29.61,0,0,0,0.00
2013-4-3,46,42,38,43,39,36,92,91,89,29.74,29.58,0,0,0,0.00
2013-4-4,44,39,35,38,36,33,92,86,78,29.88,29.73,0,0,0,0.00
2013-4-5,42,39,33,40,36,30,91,89,84,29.86,29.64,0,0,0,0.00
2013-4-6,49,44,39,42,38,33,92,83,71,30.00,29.69,0,0,0,0.00
2013-4-7,46,41,38,39,35,30,87,80,71,30.03,29.92,0,0,0,0.00
2013-4-8,51,43,35,35,32,30,82,67,53,29.95,29.83,0,0,0,0.00
2013-4-9,52,45,41,42,39,35,88,79,66,29.84,29.78,0,0,0,0.00
2013-4-10,58,49,43,46,43,39,91,80,61,29.91,29.77,0,0,0,0.18
2013-4-11,66,53,35,45,41,32,91,67,44,29.97,29.84,0,0,0,0.18
2013-4-12,65,56,48,51,46,41,88,69,53,29.86,29.76,0,0,0,0.08
2013-4-13,63,52,43,48,43,38,91,72,44,30.24,29.84,0,0,0,0.08
2013-4-14,64,52,37,45,38,34,89,62,36,30.34,30.24,0,0,0,0.00
2013-4-15,63,51,40,41,38,34,88,64,39,30.38,30.27,0,0,0,0.00
2013-4-16,68,53,37,42,37,32,83,57,34,30.32,30.23,0,0,0,0.00
2013-4-17,72,57,38,44,40,34,85,56,32,30.27,30.18,0,0,0,0.00
2013-4-18,75,60,42,47,41,37,84,55,28,30.20,30.07,0,0,0,0.00
2013-4-19,74,60,43,48,42,37,80,54,30,30.12,30.01,0,0,0,0.00
2013-4-20,74,60,43,52,45,37,81,58,38,30.11,30.03,0,0,0,0.00
2013-4-21,72,60,48,49,45,41,79,58,42,30.10,29.96,0,0,0,0.00
2013-4-22,74,61,48,50,44,36,69,53,40,30.01,29.92,0,0,0,0.00
2013-4-23,73,62,50,53,49,44,83,64,45,30.23,30.01,0,0,0,0.00
2013-4-24,78,62,44,53,45,39,88,57,28,30.35,30.24,0,0,0,0.00
2013-4-25,81,64,44,51,46,39,85,56,29,30.28,30.15,0,0,0,0.00
2013-4-26,82,63,47,54,49,42,87,62,35,30.15,29.79,0,0,0,0.27
2013-4-27,81,70,60,55,50,44,69,49,32,29.79,29.70,0,0,0,0.00
2013-4-28,78,67,58,56,52,49,79,61,43,30.01,29.76,0,0,0,0.00
2013-4-29,84,69,51,57,53,47,86,60,37,30.09,30.01,0,0,0,0.00
2013-4-30,88,72,55,58,54,50,85,58,34,30.11,29.99,0,0,0,0.00
2013-5-1,85,72,59,60,55,50,76,57,41,30.10,30.03,0,0,0,0.00
2013-5-2,82,70,57,64,58,51,80,66,51,30.06,29.82,0,0,0,0.00
2013-5-3,80,67,57,62,58,52,86,72,51,29.90,29.81,0,0,0,0.06
2013-5-4,74,62,50,56,52,47,90,72,52,30.07,29.90,0,0,0,0.06
2013-5-5,78,65,51,56,53,48,89,68,45,30.17,30.07,0,0,0,0.00
2013-5-6,76,66,61,63,56,49,87,70,55,30.15,30.04,0,0,0,0.33
2013-5-7,72,64,58,62,59,56,91,84,68,30.11,29.99,0,0,0,0.49
2013-5-8,77,65,57,61,57,54,91,75,50,30.06,29.97,0,0,0,0.06
2013-5-9,79,67,56,60,55,52,92,67,42,30.08,30.00,0,0,0,0.06
2013-5-10,79,66,52,57,52,48,88,63,38,30.02,29.85,0,0,0,0.00
2013-5-11,77,66,56,61,56,50,86,70,55,29.88,29.75,0,0,0,0.00
2013-5-12,68,60,53,55,52,48,88,75,62,29.83,29.73,0,0,0,0.04
2013-5-13,60,55,50,49,46,39,88,73,60,29.95,29.81,0,0,0,0.08
2013-5-14,63,55,46,49,46,39,82,71,56,29.95,29.91,0,0,0,0.00
2013-5-15,72,60,51,54,51,47,87,71,50,29.91,29.80,0,0,0,0.00
2013-5-16,76,65,50,56,52,46,90,66,43,29.83,29.68,0,0,0,0.00
2013-5-17,69,64,57,60,57,54,89,78,69,29.74,29.67,0,0,0,0.27
2013-5-18,75,64,53,55,53,50,92,70,45,29.96,29.75,0,0,0,0.27
2013-5-19,81,68,52,57,53,48,86,62,42,29.96,29.76,0,0,0,0.20
2013-5-20,72,63,52,56,52,48,89,69,46,29.97,29.78,0,0,0,0.22
2013-5-21,72,62,49,50,47,44,85,61,38,29.97,29.84,0,0,0,0.00
2013-5-22,68,59,53,54,51,46,87,75,56,29.84,29.68,0,0,0,0.08
2013-5-23,65,56,51,52,49,46,90,79,63,29.71,29.57,0,0,0,0.29
2013-5-24,68,57,49,51,47,45,88,72,48,29.74,29.61,0,0,0,0.29
2013-5-25,65,56,49,51,47,44,89,73,52,29.78,29.72,0,0,0,0.02
2013-5-26,61,51,45,51,46,42,90,84,61,29.79,29.71,0,0,0,0.14
2013-5-27,58,50,40,48,43,37,90,77,61,29.84,29.79,0,0,0,0.16
2013-5-28,67,56,46,56,49,41,87,76,61,29.84,29.72,0,0,0,0.20
2013-5-29,78,64,49,59,54,46,89,72,49,29.73,29.56,0,0,0,0.20
2013-5-30,65,60,52,58,55,48,90,85,74,29.59,29.49,0,0,0,0.74
2013-5-31,67,55,50,51,48,46,91,79,49,29.63,29.56,0,0,0,0.18
2013-6-1,67,56,45,54,49,43,92,78,58,29.72,29.62,0,0,0,0.18
2013-6-2,68,58,50,56,51,47,92,81,60,29.85,29.70,0,0,0,0.16
2013-6-3,65,57,52,56,51,47,89,79,66,29.91,29.85,0,0,0,0.02
2013-6-4,66,57,52,58,53,48,90,85,72,29.93,29.84,0,0,0,0.02
2013-6-5,67,59,54,61,55,51,92,88,77,30.03,29.93,0,0,0,0.35
2013-6-6,69,61,54,63,57,51,93,87,75,30.08,30.01,0,0,0,0.20
2013-6-7,77,66,58,62,58,55,92,78,57,30.05,29.95,0,0,0,0.20
2013-6-8,82,69,59,62,58,55,89,70,47,29.99,29.88,0,0,0,0.00
2013-6-9,84,71,55,63,59,53,92,69,44,29.90,29.79,0,0,0,0.00
2013-6-10,79,68,57,62,59,54,90,73,53,29.81,29.68,0,0,0,0.06
2013-6-11,74,63,54,61,56,52,92,79,57,29.88,29.76,0,0,0,0.02
2013-6-12,77,65,51,59,54,48,91,70,48,30.06,29.87,0,0,0,0.02
2013-6-13,81,69,57,58,55,50,81,62,43,30.09,30.00,0,0,0,0.00
2013-6-14,85,72,55,62,58,52,91,65,41,30.04,29.96,0,0,0,0.00
2013-6-15,86,74,59,65,60,55,90,66,44,30.01,29.94,0,0,0,0.00
2013-6-16,90,76,59,65,62,56,90,64,41,30.05,29.97,0,0,0,0.00
2013-6-17,92,79,63,68,64,60,90,63,41,30.05,30.00,0,0,0,0.00
2013-6-18,95,81,66,68,65,61,89,62,38,30.06,29.99,0,0,0,0.00
2013-6-19,97,84,66,72,67,62,86,60,36,30.03,29.97,0,0,0,0.00
2013-6-20,95,83,70,73,68,65,83,63,43,30.02,29.93,0,0,0,0.00
2013-6-21,95,83,72,72,68,65,80,62,39,29.95,29.91,0,0,0,0.00
2013-6-22,95,81,68,72,67,64,88,65,39,29.96,29.86,0,0,0,0.12
2013-6-23,82,72,66,70,66,62,92,81,62,29.93,29.82,0,0,0,0.06
2013-6-24,82,67,58,68,62,54,92,83,59,29.85,29.75,0,0,0,0.14
2013-6-25,61,58,56,56,54,50,90,85,79,30.00,29.81,0,0,0,0.02
2013-6-26,66,59,53,52,50,48,83,73,61,30.18,30.00,0,0,0,0.02
2013-6-27,69,59,50,57,52,46,86,78,63,30.18,30.10,0,0,0,0.00
2013-6-28,70,62,55,57,54,52,90,77,61,30.11,30.01,0,0,0,0.00
2013-6-29,75,64,53,59,55,50,91,75,51,30.04,29.93,0,0,0,0.00
2013-6-30,76,63,52,58,52,48,90,70,46,30.06,29.96,0,0,0,0.00
2013-7-1,74,63,48,52,49,44,85,63,44,30.12,30.05,0,0,0,0.00
2013-7-2,82,67,49,55,51,46,89,61,36,30.13,30.03,0,0,0,0.00
2013-7-3,85,70,53,59,54,48,85,60,38,30.06,29.95,0,0,0,0.00
2013-7-4,88,75,60,60,56,51,79,54,32,30.06,29.99,0,0,0,0.00
2013-7-5,84,74,60,64,60,54,82,63,49,30.14,30.05,0,0,0,0.00
2013-7-6,88,77,66,66,62,59,80,63,43,30.21,30.12,0,0,0,0.00
2013-7-7,87,77,66,65,61,57,78,59,44,30.24,30.17,0,0,0,0.00
2013-7-8,86,75,65,62,58,55,70,56,44,30.26,30.18,0,0,0,0.00
2013-7-9,86,76,65,61,56,53,66,51,39,30.23,30.03,0,0,0,0.00
2013-7-10,86,74,59,63,59,53,90,63,40,30.04,29.84,0,0,0,0.20
2013-7-11,79,70,59,64,59,50,92,70,49,29.96,29.81,0,0,0,0.22
2013-7-12,76,66,54,55,52,49,84,63,44,30.04,29.95,0,0,0,0.00
2013-7-13,78,67,53,56,53,49,88,63,44,30.05,30.01,0,0,0,0.00
2013-7-14,82,69,55,57,52,50,84,59,35,30.06,29.99,0,0,0,0.00
2013-7-15,80,68,56,60,54,47,84,63,38,30.09,29.97,0,0,0,0.00
2013-7-16,80,68,52,56,52,47,82,59,39,30.19,30.09,0,0,0,0.00
2013-7-17,87,72,56,59,55,50,82,59,36,30.20,30.11,0,0,0,0.00
2013-7-18,87,73,59,62,58,54,84,62,41,30.16,30.08,0,0,0,0.00
2013-7-19,87,72,64,67,60,56,81,67,43,30.10,29.95,0,0,0,0.00
2013-7-20,87,74,58,64,59,49,89,63,41,30.06,29.94,0,0,0,0.00
2013-7-21,82,71,61,56,51,47,65,50,36,30.13,30.06,0,0,0,0.00
2013-7-22,87,72,54,57,54,49,82,56,34,30.12,29.94,0,0,0,0.00
2013-7-23,91,74,56,60,55,52,86,55,28,29.94,29.86,0,0,0,0.00
2013-7-24,91,75,62,56,52,45,76,48,22,29.97,29.89,0,0,0,0.00
2013-7-25,82,72,60,60,56,47,79,58,46,30.00,29.93,0,0,0,0.00
2013-7-26,92,75,59,64,60,55,88,62,35,30.02,29.94,0,0,0,0.00
2013-7-27,94,79,62,66,62,56,81,58,36,29.97,29.90,0,0,0,0.00
2013-7-28,98,83,66,66,62,60,84,53,30,29.99,29.93,0,0,0,0.00
2013-7-29,100,85,69,68,62,57,68,48,32,29.99,29.83,0,0,0,0.00
2013-7-30,82,75,68,65,59,54,87,59,43,30.03,29.86,0,0,0,0.02
2013-7-31,87,73,58,61,56,52,81,58,37,30.04,29.99,0,0,0,0.00
2013-8-1,86,72,61,62,58,55,82,64,40,30.08,30.03,0,0,0,0.00
2013-8-2,94,78,60,63,60,55,85,56,33,30.10,30.00,0,0,0,0.00
2013-8-3,73,65,62,63,59,58,87,80,69,30.02,29.99,0,0,0,0.00
2013-8-4,93,80,69,62,60,54,73,53,35,30.11,30.00,0,0,0,0.00
2013-8-5,95,80,68,65,61,53,76,54,34,30.13,30.01,0,0,0,0.00
2013-8-6,98,83,67,66,62,57,73,51,32,30.06,29.96,0,0,0,0.00
2013-8-7,98,83,67,65,61,57,71,50,30,30.00,29.94,0,0,0,0.00
2013-8-8,102,85,69,65,60,55,66,46,26,30.01,29.94,0,0,0,0.00
2013-8-9,98,84,69,64,61,58,71,49,29,29.97,29.82,0,0,0,0.00
2013-8-10,80,72,65,65,61,56,83,68,54,29.97,29.86,0,0,0,0.00
2013-8-11,87,72,62,60,54,48,76,56,29,30.01,29.94,0,0,0,0.00
2013-8-12,89,74,56,58,53,48,79,52,31,30.06,29.96,0,0,0,0.00
2013-8-13,89,75,59,60,55,51,76,53,35,30.03,29.93,0,0,0,0.00
2013-8-14,78,69,61,59,53,48,86,60,36,30.16,30.01,0,0,0,0.00
2013-8-15,80,66,53,56,52,46,91,63,34,30.21,30.14,0,0,0,0.10
2013-8-16,83,69,54,51,48,44,68,49,30,30.21,30.08,0,0,0,0.10
2013-8-17,86,70,54,54,49,44,72,50,29,30.11,30.01,0,0,0,0.00
2013-8-18,91,73,53,57,51,46,77,50,27,30.08,29.99,0,0,0,0.00
2013-8-19,92,78,59,58,53,49,70,44,25,30.03,29.91,0,0,0,0.00
2013-8-20,82,72,64,63,59,52,80,65,47,30.12,29.93,0,0,0,0.00
2013-8-21,79,69,62,64,60,55,88,74,57,30.15,30.10,0,0,0,0.00
2013-8-22,80,67,55,59,54,50,83,65,46,30.14,30.03,0,0,0,0.00
2013-8-23,82,70,58,56,53,49,73,56,40,30.08,29.97,0,0,0,0.00
2013-8-24,80,70,59,55,52,49,71,54,41,30.01,29.88,0,0,0,0.00
2013-8-25,80,70,62,60,54,49,87,59,42,29.91,29.81,0,0,0,0.02
2013-8-26,68,64,60,64,60,57,91,86,78,29.93,29.85,0,0,0,0.76
2013-8-27,75,66,58,61,58,55,91,77,60,29.96,29.87,0,0,0,0.76
2013-8-28,72,64,59,61,57,54,90,79,64,29.91,29.85,0,0,0,0.66
2013-8-29,76,64,59,61,57,55,91,81,51,30.10,29.91,0,0,0,0.27
2013-8-30,77,64,57,62,56,53,92,76,45,30.12,30.06,0,0,0,0.27
2013-8-31,80,65,52,59,54,49,92,71,39,30.11,30.04,0,0,0,0.00
2013-9-1,75,64,53,60,54,48,91,73,53,30.16,30.05,0,0,0,0.00
2013-9-2,70,60,49,50,47,44,86,64,43,30.22,30.12,0,0,0,0.00
2013-9-3,74,65,53,59,53,47,84,66,49,30.23,30.05,0,0,0,0.00
2013-9-4,76,62,48,52,47,44,89,61,36,30.28,30.18,0,0,0,0.00
2013-9-5,78,62,48,52,48,44,87,65,38,30.19,30.05,0,0,0,0.00
2013-9-6,77,63,50,52,48,44,79,61,41,30.08,30.00,0,0,0,0.00
2013-9-7,79,62,46,51,46,41,84,60,31,30.17,30.07,0,0,0,0.00
2013-9-8,80,63,47,52,48,42,85,61,36,30.24,30.13,0,0,0,0.00
2013-9-9,64,58,54,54,51,45,91,78,60,30.13,30.04,0,0,0,0.31
2013-9-10,69,60,54,60,56,52,92,86,69,30.12,29.97,0,0,0,0.31
2013-9-11,64,58,50,56,54,46,92,86,65,29.98,29.90,0,0,0,0.28
2013-9-12,68,58,49,54,50,46,91,78,54,29.98,29.91,0,0,0,0.10
2013-9-13,66,56,50,52,49,47,91,79,56,30.02,29.95,0,0,0,0.14
2013-9-14,56,53,49,54,50,46,92,90,88,30.00,29.90,0,0,0,0.25
2013-9-15,72,58,45,61,52,43,93,83,60,29.96,29.78,0,0,0,0.25
2013-9-16,75,63,53,61,56,50,92,80,56,29.77,29.56,0,0,0,0.00
2013-9-17,62,55,48,57,50,40,91,81,71,29.66,29.44,0,0,0,0.04
2013-9-18,61,52,42,48,44,39,90,74,52,29.69,29.57,0,0,0,0.04
2013-9-19,62,55,49,51,46,41,88,72,48,29.92,29.57,0,0,0,0.00
2013-9-20,64,55,42,50,45,39,90,72,52,30.05,29.92,0,0,0,0.00
2013-9-21,68,57,49,53,50,45,90,77,56,30.24,30.04,0,0,0,0.00
2013-9-22,66,52,41,52,45,39,92,80,53,30.32,30.19,0,0,0,0.00
2013-9-23,66,57,47,54,50,44,90,77,65,30.18,29.95,0,0,0,0.00
2013-9-24,68,60,52,54,51,47,83,71,58,29.95,29.90,0,0,0,0.00
2013-9-25,68,56,47,52,48,44,90,73,55,30.02,29.90,0,0,0,0.00
2013-9-26,73,59,50,60,52,44,89,77,54,29.94,29.80,0,0,0,0.00
2013-9-27,60,50,41,48,43,38,92,79,54,30.09,29.94,0,0,0,0.00
2013-9-28,64,50,38,49,41,35,91,76,48,30.04,29.96,0,0,0,0.00
2013-9-29,60,52,42,43,40,37,82,66,50,30.01,29.92,0,0,0,0.00
2013-9-30,59,53,48,44,40,37,68,61,56,29.91,29.78,0,0,0,0.00
2013-10-1,59,52,46,43,40,38,74,65,54,29.95,29.77,0,0,0,0.00
2013-10-2,54,48,38,40,35,26,75,60,40,30.33,29.94,0,0,0,0.00
2013-10-3,52,42,30,29,26,23,77,56,38,30.50,30.33,0,0,0,0.00
2013-10-4,53,40,30,30,27,23,82,61,39,30.53,30.42,0,0,0,0.00
2013-10-5,58,41,28,34,29,24,85,66,39,30.43,30.24,0,0,0,0.00
2013-10-6,62,47,36,39,34,28,79,62,42,30.31,30.23,0,0,0,0.00
2013-10-7,68,53,42,42,37,35,77,57,33,30.37,30.30,0,0,0,0.00
2013-10-8,69,54,43,42,39,35,77,59,35,30.36,30.25,0,0,0,0.00
2013-10-9,60,53,47,48,42,35,88,68,60,30.25,30.01,0,0,0,0.04
2013-10-10,55,53,51,51,50,48,91,90,88,30.02,29.89,0,0,0,0.02
2013-10-11,71,60,51,58,53,48,92,80,60,30.06,29.94,0,0,0,0.02
2013-10-12,74,62,52,60,56,49,92,80,60,30.15,30.04,0,0,0,0.00
2013-10-13,67,58,46,60,53,43,93,84,59,30.19,30.10,0,0,0,0.06
2013-10-14,68,54,42,55,48,40,92,82,60,30.19,30.08,0,0,0,0.02
2013-10-15,66,55,45,57,50,42,91,83,67,30.08,29.80,0,0,0,0.02
2013-10-16,51,48,43,48,46,41,92,91,88,29.81,29.58,0,0,0,0.41
2013-10-17,62,52,44,50,45,39,89,78,57,29.96,29.73,0,0,0,0.41
2013-10-18,61,51,41,48,43,38,90,76,58,30.13,29.94,0,0,0,0.00
2013-10-19,57,47,35,45,40,32,91,77,58,30.30,30.12,0,0,0,0.00
2013-10-20,70,56,42,53,47,38,89,73,54,30.25,30.11,0,0,0,0.00
2013-10-21,69,56,49,57,50,46,90,82,66,30.16,30.08,0,0,0,0.00
2013-10-22,68,57,47,59,52,45,93,85,70,30.16,30.09,0,0,0,0.00
2013-10-23,76,66,58,59,56,54,86,71,50,30.10,29.99,0,0,0,0.00
2013-10-24,74,61,51,58,54,48,90,78,58,30.16,30.07,0,0,0,0.00
2013-10-25,72,60,52,59,53,49,91,81,58,30.19,30.11,0,0,0,0.00
2013-10-26,71,58,49,58,52,47,92,83,63,30.15,30.09,0,0,0,0.00
2013-10-27,72,58,46,59,52,44,93,81,60,30.12,29.92,0,0,0,0.00
2013-10-28,72,62,51,59,54,48,90,76,60,30.05,29.91,0,0,0,0.00
2013-10-29,70,58,49,58,52,46,91,79,63,30.05,29.90,0,0,0,0.00
2013-10-30,64,54,43,52,46,38,90,76,56,30.30,30.04,0,0,0,0.00
2013-10-31,60,46,37,43,37,33,90,72,42,30.37,30.29,0,0,0,0.00
2013-11-1,59,51,46,50,43,37,87,75,67,30.30,30.12,0,0,0,0.00
2013-11-2,66,55,46,53,49,43,92,82,63,30.11,29.89,0,0,0,0.00
2013-11-3,66,54,47,56,50,42,92,85,68,29.91,29.63,0,0,0,0.18
2013-11-4,53,49,45,49,44,41,90,83,64,29.93,29.53,0,0,0,0.02
2013-11-5,53,50,44,51,47,42,92,92,90,29.53,29.43,0,0,0,0.08
2013-11-6,48,42,36,42,38,33,91,85,76,29.85,29.49,0,0,0,0.08
2013-11-7,59,50,44,49,44,38,90,80,65,30.01,29.86,0,0,0,0.00
2013-11-8,61,50,40,53,46,37,92,87,73,30.01,29.93,0,0,0,0.00
2013-11-9,62,55,49,52,48,46,90,78,67,29.93,29.80,0,0,0,1.10
2013-11-10,55,48,43,48,44,40,92,86,71,29.81,29.72,0,0,0,0.02
2013-11-11,51,48,46,45,43,40,91,82,75,30.25,29.75,0,0,0,0.08
2013-11-12,55,48,41,44,41,36,89,79,65,30.32,30.25,0,0,0,0.08
2013-11-13,50,47,44,47,43,40,90,86,80,30.28,30.24,0,0,0,0.02
2013-11-14,46,44,42,42,36,33,88,73,60,30.26,30.12,0,0,0,0.04
2013-11-15,49,44,40,42,38,36,88,80,73,30.37,30.13,0,0,0,0.00
2013-11-16,53,43,36,46,39,33,91,87,73,30.41,30.32,0,0,0,0.00
2013-11-17,47,39,34,45,37,31,92,91,87,30.32,30.24,0,0,0,0.00
2013-11-18,42,40,38,40,38,36,93,92,91,30.24,30.06,0,0,0,0.00
2013-11-19,47,41,37,42,38,35,93,90,81,30.07,29.73,0,0,0,0.00
2013-11-20,53,47,40,47,43,37,91,86,75,29.73,29.54,0,0,0,0.21
2013-11-21,47,43,35,44,40,33,92,91,89,29.69,29.58,0,0,0,0.10
2013-11-22,49,46,44,46,44,42,93,92,90,29.75,29.61,0,0,0,0.10
2013-11-23,50,46,42,46,43,40,93,89,84,29.77,29.70,0,0,0,0.00
2013-11-24,47,45,44,44,42,42,92,91,85,29.72,29.65,0,0,0,0.23
2013-11-25,44,36,34,42,32,27,92,84,73,30.04,29.64,0,0,0,0.02
2013-11-26,38,34,30,29,27,24,80,76,67,30.22,30.03,0,0,0,0.02
2013-11-27,39,31,24,26,24,20,86,75,57,30.43,30.21,0,0,0,0.00
2013-11-28,36,30,20,30,24,17,89,79,61,30.42,30.22,0,0,0,0.00
2013-11-29,44,37,32,34,31,28,85,78,63,30.22,30.06,0,0,0,0.00
2013-11-30,41,34,26,31,28,23,88,79,67,30.27,30.00,0,0,0,0.00
2013-12-1,43,30,22,35,26,20,90,84,67,30.34,30.26,0,0,0,0.00
2013-12-2,45,32,23,36,28,20,91,83,66,30.60,30.26,0,0,0,0.00
2013-12-3,39,29,22,28,22,18,87,76,57,30.62,30.48,0,0,0,0.00
2013-12-4,29,25,19,26,22,16,91,90,86,30.47,30.17,0,0,0,0.00
2013-12-5,43,33,25,36,28,23,91,83,66,30.28,29.89,0,0,0,0.00
2013-12-6,42,35,31,31,28,24,88,78,57,29.89,29.75,0,0,0,0.00
2013-12-7,37,34,31,27,24,22,82,67,54,30.21,29.88,0,0,0,0.00
2013-12-8,41,37,32,34,31,26,87,80,76,30.34,30.19,0,0,0,0.00
2013-12-9,46,41,36,38,35,30,81,78,72,30.31,30.13,0,0,0,0.00
2013-12-10,43,34,23,38,26,18,87,75,64,30.74,30.24,0,0,0,0.00
2013-12-11,36,28,22,24,21,17,83,76,61,30.74,30.59,0,0,0,0.00
2013-12-12,35,32,28,30,27,22,89,81,74,30.58,30.42,0,0,0,0.00
2013-12-13,33,32,30,30,28,27,89,88,86,30.42,30.31,0,0,0,0.00
2013-12-14,31,30,28,28,27,25,90,89,88,30.47,30.34,0,0,0,0.00
2013-12-15,36,32,29,33,30,26,91,90,89,30.57,30.46,0,0,0,0.00
2013-12-16,34,32,31,32,30,29,92,92,91,30.68,30.56,0,0,0,0.00
2013-12-17,34,32,31,31,29,28,92,90,87,30.67,30.53,0,0,0,0.00
2013-12-18,31,28,27,28,26,25,91,90,89,30.52,30.32,0,0,0,0.00
2013-12-19,30,29,27,27,26,25,91,90,89,30.32,30.17,0,0,0,0.00
2013-12-20,29,28,26,27,26,24,92,91,91,30.48,30.23,0,0,0,0.00
2013-12-21,41,32,26,37,29,23,92,88,76,30.63,30.48,0,0,0,0.00
2013-12-22,32,31,29,30,29,27,92,92,92,30.58,30.32,0,0,0,0.00
2013-12-23,41,36,32,38,34,30,92,91,88,30.33,30.27,0,0,0,0.00
2013-12-24,44,38,33,39,34,31,93,87,76,30.28,30.01,0,0,0,0.00
2013-12-25,50,42,33,37,32,27,86,71,57,30.02,29.77,0,0,0,0.00
2013-12-26,50,44,38,42,38,34,85,79,71,29.77,29.58,0,0,0,0.00
2013-12-27,49,43,36,43,39,33,89,85,77,30.01,29.67,0,0,0,0.00
2013-12-28,51,42,34,44,38,32,91,87,77,30.05,29.97,0,0,0,0.00
2013-12-29,43,37,30,40,34,28,92,91,88,30.21,29.96,0,0,0,0.00
2013-12-30,48,40,32,42,36,29,91,87,77,30.36,30.21,0,0,0,0.00
2013-12-31,38,36,32,36,33,30,91,90,86,30.32,30.22,0,0,0,0.00
2014-1-1,39,35,31,35,32,29,92,89,85,30.22,30.12,0,0,0,0.00
2014-1-2,43,38,33,36,33,29,89,83,75,30.13,29.96,0,0,0,0.00